Content
SEND FEEDBACK

Daily
Averages
Monthly
Summary
Australia

SOUTHPORT, QUEENSLAND


Home > Oceania > Australia > Queensland
Elevation: 62 feet     Latitude: 27 57S     Longitude: 153 24E

WEATHER
 
SELECT A DAY
Number of Records: 195,544;   Date Range: 10/20/03 - 7/30/14
 
SHARE

PRINT THIS DATA

[ ← Previous Day ]
WEATHER ALMANAC - JANUARY 31, 2013
[ Next Day → ]
[ °C ]   °F
Weather ElementAverageHighLow
Temperature76.2 °F80.6 °F (12:30 pm)71.6 °F (5:30 am)
Dewpoint69.8 °F73.4 °F (12:00 am)66.2 °F (12:00 pm)
Humidity80.6 %100 % (5:30 am)57 % (12:00 pm)
Barometer29.90 in29.95 in (12:00 am)29.86 in (2:30 pm)
Wind Speed7.7 mph11.5 mph (8:00 pm)
Weather ElementAverage
Visibility5.4 mi
Wind DirectionESE (105.4 °)

Weather ElementTotal
Precipitation---
Cooling Degree Days11.1 (Base 65)
Growing Degree Days26.1 (Base 50)
Averaged from 54 records on January 31, 2013
WEATHER CONDITIONS BREAKOUT
WIND DIRECTION BREAKOUT
WEATHER BY HOUR - JANUARY 31, 2013
[ °C ]   °F
Local TimeTemperatureDewpointHumidityBarometerVisibilityWind DirectionWind SpeedGust SpeedPrecipitationEventsConditions
12:00 AM75.2 °F73.4 °F94 %29.95 in6.2 miSW (230°)5.8 mphOvercast
12:30 AM75.2 °F73.4 °F94 %29.92 in6.2 miSSW (210°)3.5 mphOvercast
1:00 AM75.2 °F73.4 °F94 %29.92 in6.2 miSSW (210°)1.2 mphOvercast
1:30 AM75.2 °F73.4 °F94 %29.92 in6.2 miSouth (190°)3.5 mphOvercast
2:00 AM75.2 °F71.6 °F89 %29.89 in6.2 miSSW (200°)5.8 mphOvercast
2:30 AM73.4 °F71.6 °F94 %29.89 in6.2 miSSW (210°)5.8 mphOvercast
3:00 AM73.4 °F71.6 °F94 %29.89 in6.2 miSW (220°)6.9 mphOvercast
3:00 AM74.0 °F72.0 °F91 %29.91 inSW (220°)6.9 mphOvercast
3:30 AM73.4 °F71.6 °F94 %29.89 in6.2 miSouth (190°)3.5 mphOvercast
4:00 AM73.4 °F71.6 °F94 %29.92 in1.3 miENE (60°)8.1 mphOvercast
4:30 AM73.4 °F71.6 °F94 %29.92 in1.1 miESE (120°)6.9 mphOvercast
5:00 AM73.4 °F71.6 °F94 %29.92 in1.4 miESE (120°)4.6 mphOvercast
5:30 AM71.6 °F71.6 °F100 %29.92 in1.5 miSE (130°)5.8 mphOvercast
6:00 AM71.6 °F71.6 °F100 %29.95 in1.2 miSSE (150°)6.9 mphOvercast
6:00 AM72.0 °F71.0 °F95 %29.94 in1.0 miSSE (150°)6.9 mphOvercast
6:30 AM71.6 °F71.6 °F100 %29.95 in1.2 miSE (140°)6.9 mphOvercast
7:00 AM73.4 °F71.6 °F94 %29.95 inSouth (170°)6.9 mphOvercast
8:00 AM73.4 °F71.6 °F94 %29.95 in6.2 miSouth (190°)8.1 mphOvercast
8:30 AM75.2 °F71.6 °F89 %29.95 in6.2 miSouth (180°)6.9 mphOvercast
9:00 AM73.4 °F71.6 °F94 %29.95 in6.2 miSouth (180°)8.1 mphOvercast
9:00 AM74.0 °F71.0 °F88 %29.95 inSouth (180°)8.1 mph
9:30 AM75.2 °F71.6 °F89 %29.95 in6.2 miSE (130°)8.1 mphOvercast
10:00 AM75.2 °F71.6 °F89 %29.95 in6.2 miEast (100°)6.9 mphOvercast
10:30 AM77.0 °F71.6 °F83 %29.95 in5.6 miEast (80°)6.9 mphOvercast
11:00 AM75.2 °F71.6 °F89 %29.95 in3.1 miENE (60°)10.4 mphOvercast
11:30 AM75.2 °F68.0 °F78 %29.92 in6.2 miENE (60°)9.2 mphOvercast
12:00 PM78.8 °F66.2 °F65 %29.92 in6.2 miESE (120°)6.9 mphOvercast
12:00 PM79.0 °F67.0 °F57 %29.92 inESE (120°)6.9 mphOvercast
12:30 PM80.6 °F68.0 °F65 %29.92 in6.2 miNE (50°)5.8 mphOvercast
1:00 PM80.6 °F66.2 °F61 %29.89 in6.2 miNE (50°)5.8 mphOvercast
1:30 PM78.8 °F68.0 °F69 %29.89 in6.2 miNE (50°)6.9 mphOvercast
2:00 PM80.6 °F68.0 °F65 %29.89 in6.2 miNNE (30°)8.1 mphOvercast
2:30 PM78.8 °F69.8 °F74 %29.86 in6.2 miNE (50°)9.2 mphOvercast
3:00 PM78.8 °F69.8 °F74 %29.86 in6.2 miNE (40°)8.1 mphOvercast
3:00 PM79.0 °F69.0 °F65 %29.87 inNE (40°)8.1 mphOvercast
3:30 PM78.8 °F68.0 °F69 %29.86 in6.2 miNNE (30°)8.1 mphOvercast
4:00 PM78.8 °F68.0 °F69 %29.86 in6.2 miNorth (10°)8.1 mphOvercast
4:30 PM78.8 °F66.2 °F65 %29.86 in6.2 miNNE (20°)6.9 mphOvercast
5:00 PM78.8 °F68.0 °F69 %29.86 in6.2 miNNE (30°)9.2 mphOvercast
5:30 PM78.8 °F68.0 °F69 %29.86 in6.2 miNNE (20°)9.2 mphOvercast
6:00 PM78.8 °F68.0 °F69 %29.86 in6.2 miNNE (30°)9.2 mphOvercast
6:00 PM78.0 °F68.0 °F63 %29.86 inNNE (30°)9.2 mphOvercast
6:30 PM77.0 °F68.0 °F74 %29.86 in6.2 miNE (40°)10.4 mphOvercast
7:00 PM77.0 °F68.0 °F74 %29.86 in6.2 miNNE (20°)9.2 mphOvercast
7:30 PM77.0 °F69.8 °F78 %29.86 in6.2 miNNE (30°)10.4 mphOvercast
8:00 PM77.0 °F68.0 °F74 %29.86 in6.2 miNNE (20°)11.5 mphOvercast
8:30 PM77.0 °F68.0 °F74 %29.86 in6.2 miNorth (10°)11.5 mphOvercast
9:00 PM77.0 °F68.0 °F74 %29.86 in6.2 miNorth (10°)9.2 mphOvercast
9:00 PM77.0 °F68.0 °F67 %29.87 inNorth (10°)9.2 mphOvercast
9:30 PM77.0 °F68.0 °F74 %29.86 in6.2 miNorth (10°)10.4 mphOvercast
10:00 PM77.0 °F68.0 °F74 %29.86 in6.2 miNorth (10°)10.4 mphOvercast
10:30 PM77.0 °F68.0 °F74 %29.86 in6.2 miNorth (360°)10.4 mphOvercast
11:00 PM77.0 °F68.0 °F74 %29.86 in6.2 miNorth (360°)9.2 mphOvercast
11:30 PM77.0 °F68.0 °F74 %29.86 in6.2 miNorth (10°)9.2 mphOvercast
Hourly data recorded from YBCG, located miles away from Southport, Queensland







STORIES FROM OUR PARTNERS